Weather in Kowalewo Pomorskie

Poland     53°09′24″N   18°53′41″E
temp.,
°C
wind,
m/s
gust,
m/s
humid.,
%
clouds,
%
prec.,
mm/h
press.,
hPa
HPBL,
m
18 april, sun
sun1823:00+9nne3689100 0.2 1020173
02:00+7ene369398 0.2 1020107
05:00+6ene3590100 0.0 1020105
08:00+8e4882100 0.0 1020305
11:00+11e5768100 0.0 1020760
14:00+14e465442 0.0 10201666
17:00+13ene566698 0.1 1020568
20:00+9ne3586100 0.1 1021116
19 april, mon
mon1923:00+8nne339243 0.0 102151
02:00+7n239586 0.0 102183
05:00+7n249610 0.0 1020101
08:00+10ene46840 0.3 1020268
11:00+15e56660 0.6 1019990
14:00+16e664853 1.1 10192031
17:00+14e4756100 0.0 1018231
20:00+11e4966100 0.0 1019269
20 april, tue
tue2023:00+9e497560 0.0 1019247
02:00+7e37869 0.0 1019178
05:00+5ene358215 0.0 101880
08:00+8ne3572100 0.0 1018178
11:00+11ene445885 0.0 10181124
14:00+12nne335980 0.3 10161213
17:00+12n446387 0.3 10151011
20:00+8nne348085 0.6 101555
21 april, wed
wed2123:00+5n33875 0.0 101542
02:00+4nnw22875 0.0 101426
05:00+4nw228551 0.0 101419
08:00+8w237248 0.0 1013188
11:00+12w346056 0.2 10121073
14:00+13wsw454999 0.5 10111735
17:00+14wsw344613 0.0 10101748
20:00+9sw378194 0.3 1010163
22 april, thu
thu2223:00+6wnw499420 0.3 1011209
02:00+5w3790100 0.8 1012403
05:00+3wsw499341 0.0 1012335
08:00+4wsw69785 0.0 1013730
11:00+5wsw786772 0.1 10141359
14:00+7wsw686489 0.1 10151355
17:00+7wsw576389 0.4 10141394
20:00+4wnw2495100 1.9 1015800